Annapolis, MD

11:59 PM EDT on August 30, 2016 (GMT -0400)
Annapolis Naval Academy

Weather History for KNAK - November, 2012

Change the Weather History Date:

Saturday, November 24, 2012

  Actual Average (KBWI) Record (KBWI)
Temperature  
Mean Temperature 44 °F 44 °F  
Max Temperature 50 °F 53 °F 73 °F (1979)
Min Temperature 39 °F 34 °F 17 °F (1956)
Degree Days  
Heating Degree Days 20 21  
Month to date heating degree days 421  
Since 1 July heating degree days 768  
Cooling Degree Days 0 0  
Month to date cooling degree days 0  
Year to date cooling degree days 1163  
Moisture  
Dew Point 23 °F    
Average Humidity 46    
Maximum Humidity 51    
Minimum Humidity 43    
Precipitation  
Precipitation 0.00 in 0.11 in 2.82 in (1877)
Month to date precipitation 2.62  
Year to date precipitation 37.83  
Snow  
Snow 0.00 in 0.00 in 5.00 in (1938)
Month to date snowfall 0.2  
Since 1 July snowfall 0.2  
Snow Depth -    
Sea Level Pressure  
Sea Level Pressure 29.95 in    
Wind  
Wind Speed 14 mph (WNW)    
Max Wind Speed 23 mph    
Max Gust Speed 33 mph    
Visibility 10 miles    
Events      
T = Trace of Precipitation, MM = Missing Value Source: NWS Daily Summary

Daily Weather History Graph

Daily Weather History Graph

Search for Another Location

Airport or City:

Trip Planner

Search our weather history database for the weather conditions in past years. The results will help you decide how hot, cold, wet, or windy it might be!

Date:

Astronomy

Nov. 24, 2012 Rise Set
Actual Time 6:59 AM EST 4:46 PM EST
Civil Twilight 6:29 AM EST 5:15 PM EST
Nautical Twilight 5:57 AM EST 5:48 PM EST
Astronomical Twilight 5:25 AM EST 6:20 PM EST
Moon 2:28 PM EST (11/24) 3:15 AM EST (11/24)
Length of Visible Light 10h 45m
Length of Day
9h 47m
Waxing Gibbous, 87% of the Moon is Illuminated
Nov 24
Waxing Gibbous
Nov 28
Full
Dec 6
Last Quarter
Dec 13
New
Dec 20
First Quarter

Hourly Weather History & Observations

Time (EST) Temp. Windchill Dew Point Humidity Pressure Visibility Wind Dir Wind Speed Gust Speed Precip Events Conditions
12:54 AM 50.0 °F - 28.9 °F 44% 29.82 in 10.0 mi NW 15.0 mph 28.8 mph N/A   Clear
1:54 AM 46.0 °F 38.8 °F 28.9 °F 51% 29.86 in 10.0 mi NW 18.4 mph 28.8 mph N/A   Clear
2:54 AM 43.0 °F 37.2 °F 24.1 °F 47% 29.88 in 10.0 mi WNW 10.4 mph 20.7 mph N/A   Mostly Cloudy
3:54 AM 42.1 °F 35.2 °F 23.0 °F 47% 29.89 in 10.0 mi WNW 12.7 mph 19.6 mph N/A   Scattered Clouds
4:54 AM 42.1 °F 34.9 °F 23.0 °F 47% 29.91 in 10.0 mi WNW 13.8 mph 25.3 mph N/A   Overcast
5:54 AM 42.1 °F 34.9 °F 21.9 °F 45% 29.92 in 10.0 mi NW 13.8 mph 23.0 mph N/A   Overcast
6:54 AM 41.0 °F 34.3 °F 23.0 °F 49% 29.94 in 10.0 mi NW 11.5 mph - N/A   Overcast
7:54 AM 42.1 °F 33.3 °F 25.0 °F 51% 29.96 in 10.0 mi NNW 19.6 mph 29.9 mph N/A   Overcast
8:54 AM 42.1 °F 33.6 °F 23.0 °F 47% 29.96 in 10.0 mi NW 18.4 mph 24.2 mph N/A   Overcast
9:54 AM 42.1 °F 35.7 °F 23.0 °F 47% 29.96 in 10.0 mi WNW 11.5 mph 21.9 mph N/A   Overcast
10:54 AM 42.1 °F 35.7 °F 23.0 °F 47% 29.96 in 10.0 mi WNW 11.5 mph 21.9 mph N/A   Overcast
11:54 AM 42.1 °F 36.6 °F 21.9 °F 45% 29.94 in 10.0 mi WNW 9.2 mph 21.9 mph N/A   Overcast
12:54 PM 44.1 °F 37.1 °F 23.0 °F 43% 29.93 in 10.0 mi NW 15.0 mph 21.9 mph N/A   Overcast
1:54 PM 45.0 °F 37.4 °F 24.1 °F 44% 29.92 in 10.0 mi NW 18.4 mph 25.3 mph N/A   Overcast
2:54 PM 43.0 °F 33.8 °F 21.9 °F 43% 29.93 in 10.0 mi NW 23.0 mph 33.4 mph N/A   Mostly Cloudy
3:54 PM 43.0 °F 34.8 °F 21.9 °F 43% 29.94 in 10.0 mi WNW 18.4 mph 26.5 mph N/A   Overcast
4:54 PM 42.1 °F 36.6 °F 21.0 °F 43% 29.96 in 10.0 mi WNW 9.2 mph 21.9 mph N/A   Mostly Cloudy
5:54 PM 41.0 °F 34.7 °F 19.9 °F 43% 29.99 in 10.0 mi WNW 10.4 mph 19.6 mph N/A   Clear
6:54 PM 39.9 °F 34.5 °F 21.9 °F 49% 30.00 in 10.0 mi WNW 8.1 mph - N/A   Clear
7:54 PM 39.9 °F 32.9 °F 21.0 °F 47% 30.00 in 10.0 mi WNW 11.5 mph 20.7 mph N/A   Scattered Clouds
8:54 PM 39.9 °F 33.4 °F 21.0 °F 47% 30.02 in 10.0 mi WNW 10.4 mph 20.7 mph N/A   Overcast
9:54 PM 39.0 °F 32.8 °F 21.0 °F 49% 30.04 in 10.0 mi WNW 9.2 mph 21.9 mph N/A   Overcast
10:54 PM 39.0 °F 34.0 °F 19.9 °F 46% 30.05 in 10.0 mi WNW 6.9 mph - N/A   Mostly Cloudy
11:54 PM 39.0 °F 34.0 °F 19.9 °F 46% 30.04 in 10.0 mi West 6.9 mph - N/A   Overcast